Simultaneous Nadir Overpasses (SNOs) Predictions

Prediction of SNOs between LANDSAT-8 and METOP-A Satellite Orbit:

Table of predicted SNOs for the next 14.0 days since TLE Epoch: 1/17/2014
Index Date (LANDSAT-8) Time (LANDSAT-8) Lat,Lon (LANDSAT-8) SZA (LANDSAT-8 ) Date (METOP-A) Time (METOP-A) Lat,Lon (METOP-A) SZA (METOP-A ) Distance(km) Time Diff (sec)
1 01/19/2014 03:06:48 81.18, 173.93 103.29 01/19/2014 03:06:28 81.17, 173.74 103.26 3.27 20
2 01/19/2014 03:56:14 -81.20, -18.17 76.68 01/19/2014 03:57:06 -81.20, -18.01 76.64 2.78 52
3 01/21/2014 22:41:08 81.19,-119.60 102.67 01/21/2014 22:40:48 81.18,-119.61 102.66 0.54 20
4 01/21/2014 23:30:34 -81.20, 48.34 77.30 01/21/2014 23:31:27 -81.20, 48.28 77.29 1.18 53
5 01/24/2014 18:15:31 81.18, -53.23 101.99 01/24/2014 18:15:08 81.17, -53.38 101.96 2.76 23
6
